| time (UTC) | temp C | wind direction | speed KPH | gust KPH | rain 1hr cm | rain 24hr cm | rain mn cm | humidity % | barometer mb |
| 20260906004153 | 30 | 5 | 0.0 | 0.0 | 0.00 | 0.00 | 0.00 | 66 | 1009.6 |
| 20260906003647 | 31 | 5 | 0.0 | 0.0 | 0.00 | 0.00 | 0.00 | 64 | 1009.6 |
| 20260906003410 | 31 | 5 | 0.0 | 0.0 | 0.00 | 0.00 | 0.00 | 63 | 1009.5 |
| 20260906002635 | 31 | 5 | 0.0 | 0.0 | 0.00 | 0.00 | 0.00 | 62 | 1009.6 |
| 20260906002130 | 31 | 5 | 0.0 | 0.0 | 0.00 | 0.00 | 0.00 | 62 | 1009.6 |
| 20260906001624 | 31 | 5 | 0.0 | 0.0 | 0.00 | 0.00 | 0.00 | 62 | 1009.7 |
| 20260906001118 | 31 | 5 | 0.0 | 0.0 | 0.00 | 0.00 | 0.00 | 62 | 1009.6 |
| 20260906000611 | 32 | 5 | 0.0 | 0.0 | 0.00 | 0.00 | 0.00 | 62 | 1009.8 |
| 20260906000106 | 32 | 5 | 0.0 | 0.0 | 0.00 | 0.00 | 0.00 | 60 | 1009.8 |
| 20260905235559 | 32 | 5 | 0.0 | 0.0 | 0.00 | 0.00 | 0.00 | 60 | 1009.9 |
| 20260905235054 | 32 | 5 | 0.0 | 0.0 | 0.00 | 0.00 | 0.00 | 59 | 1009.9 |
| 20260905234548 | 33 | 5 | 0.0 | 0.0 | 0.00 | 0.00 | 0.00 | 58 | 1009.9 |
| 20260905234308 | 33 | 5 | 0.0 | 0.0 | 0.00 | 0.00 | 0.00 | 57 | 1009.9 |
| 20260905233535 | 33 | 5 | 0.0 | 0.0 | 0.00 | 0.00 | 0.00 | 56 | 1009.8 |
| 20260905233032 | 34 | 5 | 0.0 | 0.0 | 0.00 | 0.00 | 0.00 | 56 | 1009.8 |
| 20260905232523 | 35 | 5 | 0.0 | 0.0 | 0.00 | 0.00 | 0.00 | 55 | 1009.8 |
| 20260905232018 | 35 | 5 | 0.0 | 0.0 | 0.00 | 0.00 | 0.00 | 53 | 1009.7 |
| 20260905231512 | 35 | 5 | 0.0 | 0.0 | 0.00 | 0.00 | 0.00 | 51 | 1009.7 |
| 20260905231005 | 36 | 5 | 0.0 | 0.0 | 0.00 | 0.00 | 0.00 | 49 | 1009.7 |
| 20260905230500 | 36 | 5 | 0.0 | 0.0 | 0.00 | 0.00 | 0.00 | 48 | 1009.7 |
| 20260905225952 | 37 | 5 | 0.0 | 0.0 | 0.00 | 0.00 | 0.00 | 48 | 1009.6 |
| 20260905225446 | 37 | 5 | 0.0 | 0.0 | 0.00 | 0.00 | 0.00 | 46 | 1009.6 |
| 20260905224939 | 37 | 5 | 0.0 | 0.0 | 0.00 | 0.00 | 0.00 | 46 | 1009.6 |
| 20260905224658 | 38 | 36 | 0.0 | 0.0 | 0.00 | 0.00 | 0.00 | 46 | 1009.6 |
| 20260905224149 | 38 | 173 | 0.0 | 0.0 | 0.00 | 0.00 | 0.00 | 45 | 1009.7 |
| 20260905223421 | 38 | 173 | 0.0 | 4.8 | 0.00 | 0.00 | 0.00 | 45 | 1009.7 |
| 20260905223141 | 38 | 173 | 0.0 | 4.8 | 0.00 | 0.00 | 0.00 | 44 | 1009.7 |
| 20260905222409 | 38 | 49 | 0.0 | 1.6 | 0.00 | 0.00 | 0.00 | 43 | 1009.8 |
| 20260905221904 | 38 | 49 | 0.0 | 3.2 | 0.00 | 0.00 | 0.00 | 44 | 1009.8 |
| 20260905221357 | 38 | 49 | 0.0 | 3.2 | 0.00 | 0.00 | 0.00 | 43 | 1009.7 |
| 20260905220851 | 38 | 5 | 0.0 | 1.6 | 0.00 | 0.00 | 0.00 | 44 | 1009.9 |
| 20260905220348 | 38 | 5 | 1.6 | 3.2 | 0.00 | 0.00 | 0.00 | 44 | 1009.8 |
| 20260905215840 | 39 | 5 | 3.2 | 6.4 | 0.00 | 0.00 | 0.00 | 41 | 1009.8 |
| 20260905215334 | 39 | 40 | 1.6 | 6.4 | 0.00 | 0.00 | 0.00 | 40 | 1009.7 |
| 20260905214828 | 39 | 55 | 1.6 | 4.8 | 0.00 | 0.00 | 0.00 | 39 | 1009.8 |
| 20260905214322 | 39 | 245 | 0.0 | 3.2 | 0.00 | 0.00 | 0.00 | 42 | 1009.8 |
| 20260905213816 | 39 | 18 | 0.0 | 1.6 | 0.00 | 0.00 | 0.00 | 42 | 1009.9 |
| 20260905213309 | 39 | 214 | 0.0 | 3.2 | 0.00 | 0.00 | 0.00 | 43 | 1009.9 |
| 20260905212803 | 39 | 292 | 0.0 | 3.2 | 0.00 | 0.00 | 0.00 | 41 | 1010.0 |
| 20260905212259 | 38 | 283 | 1.6 | 4.8 | 0.00 | 0.00 | 0.00 | 41 | 1010.0 |
| 20260905211751 | 38 | 225 | 3.2 | 12.9 | 0.00 | 0.00 | 0.00 | 41 | 1010.1 |
| 20260905211246 | 38 | 253 | 4.8 | 12.9 | 0.00 | 0.00 | 0.00 | 42 | 1010.0 |
| 20260905210739 | 39 | 327 | 3.2 | 8.0 | 0.00 | 0.00 | 0.00 | 41 | 1010.1 |
| 20260905210501 | 39 | 93 | 1.6 | 4.8 | 0.00 | 0.00 | 0.00 | 42 | 1010.1 |
| 20260905205730 | 39 | 169 | 1.6 | 4.8 | 0.00 | 0.00 | 0.00 | 45 | 1010.1 |
| 20260905205222 | 39 | 169 | 1.6 | 4.8 | 0.00 | 0.00 | 0.00 | 47 | 1010.1 |
| 20260905204716 | 38 | 215 | 1.6 | 6.4 | 0.00 | 0.00 | 0.00 | 44 | 1010.1 |
| 20260905204209 | 38 | 178 | 3.2 | 6.4 | 0.00 | 0.00 | 0.00 | 44 | 1010.2 |
| 20260905203704 | 38 | 211 | 3.2 | 9.7 | 0.00 | 0.00 | 0.00 | 42 | 1010.3 |
| 20260905203158 | 39 | 242 | 3.2 | 9.7 | 0.00 | 0.00 | 0.00 | 44 | 1010.4 |
| 20260905202651 | 38 | 238 | 3.2 | 9.7 | 0.00 | 0.00 | 0.00 | 44 | 1010.4 |
| 20260905202145 | 38 | 171 | 3.2 | 9.7 | 0.00 | 0.00 | 0.00 | 45 | 1010.5 |
| 20260905201639 | 38 | 254 | 1.6 | 4.8 | 0.00 | 0.00 | 0.00 | 46 | 1010.5 |
| 20260905201134 | 38 | 149 | 1.6 | 3.2 | 0.00 | 0.00 | 0.00 | 49 | 1010.7 |
| 20260905201117 | 38 | 124 | 1.6 | 3.2 | 0.00 | 0.00 | 0.00 | 47 | 1010.9 |
| 20260905200122 | 38 | 59 | 1.6 | 3.2 | 0.00 | 0.00 | 0.00 | 45 | 1010.9 |
| 20260905195615 | 38 | 149 | 1.6 | 3.2 | 0.00 | 0.00 | 0.00 | 45 | 1011.1 |
| 20260905195112 | 38 | 5 | 3.2 | 4.8 | 0.00 | 0.00 | 0.00 | 50 | 1011.1 |
| 20260905194828 | 38 | 5 | 1.6 | 4.8 | 0.00 | 0.00 | 0.00 | 47 | 1011.4 |
| 20260905194058 | 38 | 5 | 0.0 | 3.2 | 0.00 | 0.00 | 0.00 | 47 | 1011.4 |
| 20260905193552 | 38 | 84 | 0.0 | 0.0 | 0.00 | 0.00 | 0.00 | 46 | 1011.4 |
| 20260905193045 | 38 | 84 | 0.0 | 1.6 | 0.00 | 0.00 | 0.00 | 50 | 1011.5 |
| 20260905192540 | 38 | 84 | 1.6 | 4.8 | 0.00 | 0.00 | 0.00 | 48 | 1011.7 |
| 20260905192300 | 38 | 84 | 1.6 | 4.8 | 0.00 | 0.00 | 0.00 | 43 | 1011.7 |
| 20260905191527 | 38 | 56 | 1.6 | 6.4 | 0.00 | 0.00 | 0.00 | 48 | 1011.7 |
| 20260905191021 | 38 | 163 | 1.6 | 6.4 | 0.00 | 0.00 | 0.00 | 51 | 1011.8 |
| 20260905190515 | 38 | 190 | 1.6 | 6.4 | 0.00 | 0.00 | 0.00 | 51 | 1011.9 |
| 20260905190009 | 38 | 169 | 1.6 | 6.4 | 0.00 | 0.00 | 0.00 | 51 | 1011.8 |
| 20260905185516 | 37 | 36 | 3.2 | 9.7 | 0.00 | 0.00 | 0.00 | 44 | 1011.9 |
| 20260905184958 | 37 | 243 | 3.2 | 9.7 | 0.00 | 0.00 | 0.00 | 44 | 1012.0 |
| 20260905184454 | 37 | 156 | 1.6 | 8.0 | 0.00 | 0.00 | 0.00 | 47 | 1012.0 |
| 20260905184208 | 37 | 236 | 1.6 | 4.8 | 0.00 | 0.00 | 0.00 | 52 | 1012.1 |
| 20260905183449 | 37 | 111 | 1.6 | 6.4 | 0.00 | 0.00 | 0.00 | 50 | 1012.1 |
| 20260905182944 | 37 | 55 | 3.2 | 8.0 | 0.00 | 0.00 | 0.00 | 46 | 1012.2 |
| 20260905182444 | 36 | 67 | 4.8 | 8.0 | 0.00 | 0.00 | 0.00 | 47 | 1012.2 |
| 20260905181944 | 36 | 17 | 3.2 | 8.0 | 0.00 | 0.00 | 0.00 | 46 | 1012.3 |
| 20260905181444 | 36 | 19 | 1.6 | 4.8 | 0.00 | 0.00 | 0.00 | 47 | 1012.3 |
| 20260905181206 | 36 | 342 | 3.2 | 9.7 | 0.00 | 0.00 | 0.00 | 51 | 1012.4 |
| 20260905180453 | 36 | 5 | 4.8 | 9.7 | 0.00 | 0.00 | 0.00 | 48 | 1012.5 |
| 20260905180104 | 37 | 355 | 4.8 | 14.5 | 0.00 | 0.00 | 0.00 | 48 | 1012.4 |
| 20260905180015 | 37 | 14 | 3.2 | 11.3 | 0.00 | 0.00 | 0.00 | 48 | 1012.4 |
| 20260905180004 | 36 | 355 | 6.4 | 14.5 | 0.00 | 0.00 | 0.00 | 50 | 1012.5 |
| 20260905174437 | 37 | 178 | 3.2 | 11.3 | 0.00 | 0.00 | 0.00 | 48 | 1012.4 |
| 20260905174403 | 38 | 220 | 3.2 | 11.3 | 0.00 | 0.00 | 0.00 | 49 | 1012.5 |
| 20260905174032 | 37 | 263 | 3.2 | 11.3 | 0.00 | 0.00 | 0.00 | 47 | 1012.5 |
| 20260905172937 | 38 | 259 | 1.6 | 8.0 | 0.00 | 0.00 | 0.00 | 50 | 1012.6 |
| 20260905172438 | 38 | 175 | 1.6 | 8.0 | 0.00 | 0.00 | 0.00 | 47 | 1012.5 |
| 20260905171937 | 38 | 179 | 1.6 | 6.4 | 0.00 | 0.00 | 0.00 | 52 | 1012.7 |
| 20260905171438 | 38 | 187 | 1.6 | 6.4 | 0.00 | 0.00 | 0.00 | 50 | 1012.7 |
| 20260905170931 | 38 | 207 | 1.6 | 4.8 | 0.00 | 0.00 | 0.00 | 50 | 1012.7 |
| 20260905170426 | 38 | 166 | 1.6 | 4.8 | 0.00 | 0.00 | 0.00 | 54 | 1012.9 |
| 20260905165923 | 38 | 209 | 1.6 | 4.8 | 0.00 | 0.00 | 0.00 | 52 | 1013.0 |
| 20260905165423 | 37 | 193 | 1.6 | 4.8 | 0.00 | 0.00 | 0.00 | 48 | 1013.0 |
| 20260905164924 | 37 | 170 | 1.6 | 4.8 | 0.00 | 0.00 | 0.00 | 49 | 1013.0 |
| 20260905164424 | 37 | 155 | 1.6 | 6.4 | 0.00 | 0.00 | 0.00 | 51 | 1013.1 |
| 20260905163923 | 37 | 155 | 1.6 | 6.4 | 0.00 | 0.00 | 0.00 | 51 | 1013.2 |
| 20260905163424 | 37 | 170 | 1.6 | 6.4 | 0.00 | 0.00 | 0.00 | 50 | 1013.2 |
| 20260905162924 | 36 | 134 | 1.6 | 4.8 | 0.00 | 0.00 | 0.00 | 48 | 1013.3 |
| 20260905162424 | 36 | 176 | 3.2 | 8.0 | 0.00 | 0.00 | 0.00 | 52 | 1013.4 |
| 20260905161923 | 36 | 203 | 3.2 | 8.0 | 0.00 | 0.00 | 0.00 | 50 | 1013.5 |
| 20260905161901 | 36 | 148 | 3.2 | 6.4 | 0.00 | 0.00 | 0.00 | 53 | 1013.5 |
| 20260905160923 | 36 | 167 | 3.2 | 6.4 | 0.00 | 0.00 | 0.00 | 52 | 1013.4 |
| 20260905160436 | 36 | 171 | 1.6 | 6.4 | 0.00 | 0.00 | 0.00 | 54 | 1013.6 |
| 20260905155924 | 36 | 173 | 1.6 | 6.4 | 0.00 | 0.00 | 0.00 | 55 | 1013.6 |
| 20260905155423 | 36 | 271 | 1.6 | 6.4 | 0.00 | 0.00 | 0.00 | 54 | 1013.6 |
| 20260905154923 | 36 | 163 | 1.6 | 4.8 | 0.00 | 0.00 | 0.00 | 59 | 1013.5 |
| 20260905154424 | 35 | 185 | 1.6 | 4.8 | 0.00 | 0.00 | 0.00 | 57 | 1013.5 |
| 20260905153926 | 35 | 126 | 1.6 | 4.8 | 0.00 | 0.00 | 0.00 | 56 | 1013.6 |
| 20260905153424 | 35 | 218 | 1.6 | 4.8 | 0.00 | 0.00 | 0.00 | 59 | 1013.7 |
| 20260905153147 | 35 | 161 | 1.6 | 6.4 | 0.00 | 0.00 | 0.00 | 59 | 1013.8 |
| 20260905152437 | 34 | 157 | 1.6 | 6.4 | 0.00 | 0.00 | 0.00 | 60 | 1013.7 |
| 20260905151923 | 34 | 184 | 1.6 | 6.4 | 0.00 | 0.00 | 0.00 | 61 | 1013.7 |
| 20260905151422 | 34 | 188 | 1.6 | 6.4 | 0.00 | 0.00 | 0.00 | 64 | 1013.7 |
| 20260905150935 | 33 | 179 | 1.6 | 3.2 | 0.00 | 0.00 | 0.00 | 63 | 1013.8 |
| 20260905150423 | 33 | 150 | 0.0 | 3.2 | 0.00 | 0.00 | 0.00 | 64 | 1013.8 |
| 20260905145921 | 33 | 175 | 0.0 | 0.0 | 0.00 | 0.00 | 0.00 | 65 | 1013.7 |
| 20260905145421 | 32 | 143 | 0.0 | 0.0 | 0.00 | 0.00 | 0.00 | 64 | 1013.8 |
| 20260905144922 | 32 | 198 | 0.0 | 0.0 | 0.00 | 0.00 | 0.00 | 68 | 1013.6 |
| 20260905144421 | 32 | 155 | 0.0 | 0.0 | 0.00 | 0.00 | 0.00 | 69 | 1013.7 |
| 20260905143921 | 32 | 155 | 0.0 | 1.6 | 0.00 | 0.00 | 0.00 | 69 | 1013.7 |
| 20260905143645 | 31 | 140 | 0.0 | 1.6 | 0.00 | 0.00 | 0.00 | 70 | 1013.6 |
| 20260905142921 | 31 | 148 | 0.0 | 0.0 | 0.00 | 0.00 | 0.00 | 74 | 1013.6 |
| 20260905142651 | 30 | 148 | 0.0 | 0.0 | 0.00 | 0.00 | 0.00 | 75 | 1013.7 |
| 20260905142136 | 30 | 148 | 0.0 | 0.0 | 0.00 | 0.00 | 0.00 | 76 | 1013.6 |
| 20260905141417 | 30 | 147 | 0.0 | 0.0 | 0.00 | 0.00 | 0.00 | 76 | 1013.6 |
| 20260905140917 | 29 | 184 | 0.0 | 0.0 | 0.00 | 0.00 | 0.00 | 80 | 1013.6 |
| 20260905140636 | 28 | 227 | 0.0 | 0.0 | 0.00 | 0.00 | 0.00 | 83 | 1013.6 |
| 20260905135918 | 28 | 205 | 0.0 | 0.0 | 0.00 | 0.00 | 0.00 | 87 | 1013.5 |
| 20260905135418 | 27 | 123 | 0.0 | 0.0 | 0.00 | 0.00 | 0.00 | 90 | 1013.5 |
| 20260905134918 | 27 | 119 | 0.0 | 0.0 | 0.00 | 0.00 | 0.00 | 90 | 1013.6 |
| 20260905134417 | 27 | 119 | 0.0 | 0.0 | 0.00 | 0.00 | 0.00 | 91 | 1013.5 |
| 20260905133918 | 26 | 119 | 0.0 | 0.0 | 0.00 | 0.00 | 0.00 | 92 | 1013.4 |
| 20260905133637 | 26 | 67 | 0.0 | 0.0 | 0.00 | 0.00 | 0.00 | 92 | 1013.4 |
| 20260905132918 | 26 | 175 | 0.0 | 0.0 | 0.00 | 0.00 | 0.00 | 92 | 1013.3 |
| 20260905132646 | 26 | 71 | 0.0 | 0.0 | 0.00 | 0.00 | 0.00 | 92 | 1013.4 |
| 20260905131917 | 25 | 130 | 0.0 | 0.0 | 0.00 | 0.00 | 0.00 | 92 | 1013.5 |
| 20260905131417 | 25 | 130 | 0.0 | 0.0 | 0.00 | 0.00 | 0.00 | 92 | 1013.3 |
| 20260905130917 | 25 | 130 | 0.0 | 0.0 | 0.00 | 0.00 | 0.00 | 92 | 1013.3 |
| 20260905130415 | 25 | 130 | 0.0 | 0.0 | 0.00 | 0.00 | 0.00 | 92 | 1013.3 |
| 20260905125915 | 25 | 130 | 0.0 | 0.0 | 0.00 | 0.00 | 0.00 | 92 | 1013.2 |
| 20260905125413 | 24 | 130 | 0.0 | 0.0 | 0.00 | 0.00 | 0.00 | 92 | 1013.2 |
| 20260905124906 | 24 | 130 | 0.0 | 0.0 | 0.00 | 0.00 | 0.00 | 92 | 1013.1 |
| 20260905124400 | 23 | 130 | 0.0 | 0.0 | 0.00 | 0.00 | 0.00 | 92 | 1013.1 |
| 20260905123854 | 23 | 130 | 0.0 | 0.0 | 0.00 | 0.00 | 0.00 | 92 | 1013.0 |
| 20260905123351 | 23 | 130 | 0.0 | 0.0 | 0.00 | 0.00 | 0.00 | 91 | 1013.0 |
| 20260905122842 | 23 | 130 | 0.0 | 0.0 | 0.00 | 0.00 | 0.00 | 91 | 1013.0 |
| 20260905122557 | 23 | 130 | 0.0 | 0.0 | 0.00 | 0.00 | 0.00 | 91 | 1012.9 |
| 20260905121830 | 23 | 130 | 0.0 | 0.0 | 0.00 | 0.00 | 0.00 | 91 | 1013.0 |
| 20260905121327 | 23 | 130 | 0.0 | 0.0 | 0.00 | 0.00 | 0.00 | 91 | 1012.9 |
| 20260905120818 | 23 | 130 | 0.0 | 0.0 | 0.00 | 0.00 | 0.00 | 91 | 1013.0 |
| 20260905120539 | 23 | 130 | 0.0 | 0.0 | 0.00 | 0.00 | 0.00 | 91 | 1012.9 |
| 20260905115807 | 23 | 130 | 0.0 | 0.0 | 0.00 | 0.00 | 0.00 | 91 | 1012.9 |
| 20260905115301 | 23 | 130 | 0.0 | 0.0 | 0.00 | 0.00 | 0.00 | 91 | 1013.0 |
| 20260905114754 | 23 | 130 | 0.0 | 0.0 | 0.00 | 0.00 | 0.00 | 91 | 1012.9 |
| 20260905114248 | 23 | 130 | 0.0 | 0.0 | 0.00 | 0.00 | 0.00 | 91 | 1013.0 |
| 20260905113747 | 23 | 130 | 0.0 | 0.0 | 0.00 | 0.00 | 0.00 | 91 | 1012.9 |
| 20260905113247 | 23 | 130 | 0.0 | 0.0 | 0.00 | 0.00 | 0.00 | 91 | 1012.9 |
| 20260905112746 | 23 | 130 | 0.0 | 0.0 | 0.00 | 0.00 | 0.00 | 91 | 1012.9 |
| 20260905112509 | 23 | 130 | 0.0 | 0.0 | 0.00 | 0.00 | 0.00 | 91 | 1012.9 |
| 20260905111744 | 23 | 130 | 0.0 | 0.0 | 0.00 | 0.00 | 0.00 | 91 | 1012.8 |
| 20260905111242 | 23 | 130 | 0.0 | 0.0 | 0.00 | 0.00 | 0.00 | 91 | 1012.8 |
| 20260905110756 | 23 | 130 | 0.0 | 0.0 | 0.00 | 0.00 | 0.00 | 91 | 1012.8 |
| 20260905110256 | 23 | 130 | 0.0 | 0.0 | 0.00 | 0.00 | 0.00 | 91 | 1012.9 |
| 20260905105743 | 23 | 130 | 0.0 | 0.0 | 0.00 | 0.00 | 0.00 | 91 | 1012.8 |
| 20260905105243 | 23 | 130 | 0.0 | 0.0 | 0.00 | 0.00 | 0.00 | 91 | 1012.8 |
| 20260905104741 | 23 | 130 | 0.0 | 0.0 | 0.00 | 0.00 | 0.00 | 91 | 1012.7 |
| 20260905104239 | 23 | 130 | 0.0 | 0.0 | 0.00 | 0.00 | 0.00 | 90 | 1012.7 |
| 20260905103737 | 23 | 130 | 0.0 | 0.0 | 0.00 | 0.00 | 0.00 | 90 | 1012.6 |
| 20260905103724 | 23 | 130 | 0.0 | 0.0 | 0.00 | 0.00 | 0.00 | 90 | 1012.6 |
| 20260905102737 | 23 | 130 | 0.0 | 0.0 | 0.00 | 0.00 | 0.00 | 90 | 1012.6 |
| 20260905102237 | 23 | 130 | 0.0 | 0.0 | 0.00 | 0.00 | 0.00 | 90 | 1012.6 |
| 20260905101735 | 23 | 130 | 0.0 | 0.0 | 0.00 | 0.00 | 0.00 | 90 | 1012.6 |
| 20260905101236 | 23 | 130 | 0.0 | 0.0 | 0.00 | 0.00 | 0.00 | 90 | 1012.6 |
| 20260905100732 | 23 | 130 | 0.0 | 0.0 | 0.00 | 0.00 | 0.00 | 90 | 1012.6 |
| 20260905100226 | 23 | 130 | 0.0 | 0.0 | 0.00 | 0.00 | 0.00 | 90 | 1012.5 |
| 20260905095721 | 23 | 130 | 0.0 | 0.0 | 0.00 | 0.00 | 0.00 | 90 | 1012.4 |
| 20260905095214 | 23 | 130 | 0.0 | 0.0 | 0.00 | 0.00 | 0.00 | 90 | 1012.5 |
| 20260905094937 | 23 | 130 | 0.0 | 0.0 | 0.00 | 0.00 | 0.00 | 90 | 1012.5 |
| 20260905094426 | 23 | 130 | 0.0 | 0.0 | 0.00 | 0.00 | 0.00 | 90 | 1012.4 |
| 20260905093657 | 23 | 130 | 0.0 | 0.0 | 0.00 | 0.00 | 0.00 | 90 | 1012.4 |
| 20260905093415 | 23 | 130 | 0.0 | 0.0 | 0.00 | 0.00 | 0.00 | 90 | 1012.5 |
| 20260905092644 | 23 | 130 | 0.0 | 0.0 | 0.00 | 0.00 | 0.00 | 90 | 1012.3 |
| 20260905092139 | 23 | 130 | 0.0 | 0.0 | 0.00 | 0.00 | 0.00 | 90 | 1012.4 |
| 20260905091632 | 23 | 130 | 0.0 | 0.0 | 0.00 | 0.00 | 0.00 | 90 | 1012.3 |
| 20260905091126 | 23 | 130 | 0.0 | 0.0 | 0.00 | 0.00 | 0.00 | 90 | 1012.3 |
| 20260905090620 | 23 | 130 | 0.0 | 0.0 | 0.00 | 0.00 | 0.00 | 89 | 1012.4 |
| 20260905090120 | 23 | 130 | 0.0 | 0.0 | 0.00 | 0.00 | 0.00 | 89 | 1012.4 |
| 20260905085609 | 23 | 130 | 0.0 | 0.0 | 0.00 | 0.00 | 0.00 | 89 | 1012.5 |
| 20260905085331 | 23 | 130 | 0.0 | 0.0 | 0.00 | 0.00 | 0.00 | 89 | 1012.4 |
| 20260905084557 | 23 | 130 | 0.0 | 0.0 | 0.00 | 0.00 | 0.00 | 89 | 1012.3 |
| 20260905084314 | 23 | 130 | 0.0 | 0.0 | 0.00 | 0.00 | 0.00 | 89 | 1012.3 |
| 20260905083549 | 23 | 130 | 0.0 | 0.0 | 0.00 | 0.00 | 0.00 | 89 | 1012.4 |
| 20260905083050 | 23 | 130 | 0.0 | 0.0 | 0.00 | 0.00 | 0.00 | 89 | 1012.3 |
| 20260905082549 | 23 | 130 | 0.0 | 0.0 | 0.00 | 0.00 | 0.00 | 89 | 1012.3 |
| 20260905082050 | 23 | 130 | 0.0 | 0.0 | 0.00 | 0.00 | 0.00 | 89 | 1012.3 |
| 20260905081811 | 24 | 130 | 0.0 | 0.0 | 0.00 | 0.00 | 0.00 | 89 | 1012.4 |
| 20260905081049 | 24 | 130 | 0.0 | 0.0 | 0.00 | 0.00 | 0.00 | 89 | 1012.4 |
| 20260905080549 | 24 | 130 | 0.0 | 0.0 | 0.00 | 0.00 | 0.00 | 89 | 1012.4 |
| 20260905075549 | 24 | 130 | 0.0 | 0.0 | 0.00 | 0.00 | 0.00 | 89 | 1012.4 |
| 20260905075102 | 24 | 130 | 0.0 | 0.0 | 0.00 | 0.00 | 0.00 | 89 | 1012.4 |
| 20260905074549 | 24 | 130 | 0.0 | 0.0 | 0.00 | 0.00 | 0.00 | 89 | 1012.4 |
| 20260905074052 | 24 | 130 | 0.0 | 0.0 | 0.00 | 0.00 | 0.00 | 89 | 1012.4 |
| 20260905073549 | 24 | 130 | 0.0 | 0.0 | 0.00 | 0.00 | 0.00 | 89 | 1012.3 |
| 20260905073051 | 24 | 130 | 0.0 | 0.0 | 0.00 | 0.00 | 0.00 | 89 | 1012.4 |
| 20260905072549 | 24 | 130 | 0.0 | 0.0 | 0.00 | 0.00 | 0.00 | 89 | 1012.4 |
| 20260905072050 | 24 | 130 | 0.0 | 0.0 | 0.00 | 0.00 | 0.00 | 89 | 1012.4 |
| 20260905071543 | 25 | 130 | 0.0 | 1.6 | 0.00 | 0.00 | 0.00 | 89 | 1012.4 |
| 20260905071037 | 25 | 130 | 0.0 | 1.6 | 0.00 | 0.00 | 0.00 | 89 | 1012.4 |
| 20260905070531 | 25 | 130 | 0.0 | 0.0 | 0.00 | 0.00 | 0.00 | 88 | 1012.5 |
| 20260905070024 | 25 | 130 | 0.0 | 0.0 | 0.00 | 0.00 | 0.00 | 88 | 1012.5 |
| 20260905065519 | 25 | 130 | 0.0 | 1.6 | 0.00 | 0.00 | 0.00 | 88 | 1012.5 |
| 20260905065244 | 25 | 130 | 0.0 | 1.6 | 0.00 | 0.00 | 0.00 | 88 | 1012.5 |
| 20260905064507 | 25 | 32 | 0.0 | 0.0 | 0.00 | 0.00 | 0.00 | 88 | 1012.4 |
| 20260905064224 | 25 | 32 | 0.0 | 0.0 | 0.00 | 0.00 | 0.00 | 88 | 1012.5 |
| 20260905063716 | 25 | 32 | 0.0 | 0.0 | 0.00 | 0.00 | 0.00 | 88 | 1012.4 |
| 20260905062949 | 25 | 32 | 0.0 | 0.0 | 0.00 | 0.00 | 0.00 | 88 | 1012.4 |
| 20260905062442 | 25 | 32 | 0.0 | 0.0 | 0.00 | 0.00 | 0.00 | 88 | 1012.5 |
| 20260905061937 | 25 | 32 | 0.0 | 0.0 | 0.00 | 0.00 | 0.00 | 88 | 1012.6 |
| 20260905061443 | 25 | 32 | 0.0 | 0.0 | 0.00 | 0.00 | 0.00 | 88 | 1012.5 |
| 20260905060925 | 25 | 32 | 0.0 | 0.0 | 0.00 | 0.00 | 0.00 | 87 | 1012.7 |
| 20260905060418 | 25 | 32 | 0.0 | 0.0 | 0.00 | 0.00 | 0.00 | 87 | 1012.7 |
| 20260905055919 | 25 | 32 | 0.0 | 0.0 | 0.00 | 0.00 | 0.00 | 87 | 1012.6 |
| 20260905055906 | 25 | 32 | 0.0 | 0.0 | 0.00 | 0.00 | 0.00 | 87 | 1012.6 |
| 20260905054914 | 25 | 32 | 0.0 | 0.0 | 0.00 | 0.00 | 0.00 | 87 | 1012.8 |
| 20260905054413 | 25 | 32 | 0.0 | 0.0 | 0.00 | 0.00 | 0.00 | 87 | 1012.8 |
| 20260905053911 | 25 | 32 | 0.0 | 0.0 | 0.00 | 0.00 | 0.00 | 87 | 1012.7 |
| 20260905053411 | 25 | 32 | 0.0 | 0.0 | 0.00 | 0.00 | 0.00 | 87 | 1012.7 |
| 20260905052911 | 25 | 32 | 0.0 | 0.0 | 0.00 | 0.00 | 0.00 | 87 | 1012.8 |
| 20260905052633 | 25 | 32 | 0.0 | 0.0 | 0.00 | 0.00 | 0.00 | 87 | 1012.8 |
| 20260905051907 | 25 | 32 | 0.0 | 0.0 | 0.00 | 0.00 | 0.00 | 87 | 1012.8 |
| 20260905051405 | 25 | 32 | 0.0 | 0.0 | 0.00 | 0.00 | 0.00 | 87 | 1012.8 |
| 20260905050904 | 25 | 32 | 0.0 | 0.0 | 0.00 | 0.00 | 0.00 | 86 | 1012.8 |
| 20260905050404 | 26 | 32 | 0.0 | 0.0 | 0.00 | 0.00 | 0.00 | 86 | 1012.7 |
| 20260905045905 | 26 | 32 | 0.0 | 0.0 | 0.00 | 0.00 | 0.00 | 86 | 1012.8 |
| 20260905045627 | 26 | 32 | 0.0 | 0.0 | 0.00 | 0.00 | 0.00 | 85 | 1012.7 |
| 20260905044902 | 26 | 32 | 0.0 | 0.0 | 0.00 | 0.00 | 0.00 | 85 | 1012.7 |
| 20260905044620 | 26 | 32 | 0.0 | 0.0 | 0.00 | 0.00 | 0.00 | 85 | 1012.8 |
| 20260905044122 | 26 | 32 | 0.0 | 0.0 | 0.00 | 0.00 | 0.00 | 85 | 1012.9 |
| 20260905043356 | 26 | 32 | 0.0 | 0.0 | 0.00 | 0.00 | 0.00 | 85 | 1013.0 |
| 20260905042854 | 26 | 32 | 0.0 | 0.0 | 0.00 | 0.00 | 0.00 | 84 | 1013.0 |
| 20260905042354 | 26 | 32 | 0.0 | 0.0 | 0.00 | 0.00 | 0.00 | 85 | 1013.0 |
| 20260905041850 | 26 | 32 | 0.0 | 0.0 | 0.00 | 0.00 | 0.00 | 85 | 1013.0 |
| 20260905041351 | 26 | 32 | 0.0 | 0.0 | 0.00 | 0.00 | 0.00 | 85 | 1013.1 |
| 20260905040851 | 26 | 32 | 0.0 | 0.0 | 0.00 | 0.00 | 0.00 | 84 | 1013.1 |
| 20260905040350 | 26 | 32 | 0.0 | 0.0 | 0.00 | 0.00 | 0.00 | 84 | 1013.2 |
| 20260905040339 | 26 | 32 | 0.0 | 0.0 | 0.00 | 0.00 | 0.00 | 84 | 1013.2 |
| 20260905035351 | 26 | 32 | 0.0 | 0.0 | 0.00 | 0.00 | 0.00 | 85 | 1013.3 |
| 20260905035120 | 26 | 32 | 0.0 | 0.0 | 0.00 | 0.00 | 0.00 | 85 | 1013.2 |
| 20260905034351 | 26 | 32 | 0.0 | 0.0 | 0.00 | 0.00 | 0.00 | 85 | 1013.2 |
| 20260905033850 | 26 | 32 | 0.0 | 0.0 | 0.00 | 0.00 | 0.00 | 85 | 1013.2 |
| 20260905033350 | 26 | 32 | 0.0 | 0.0 | 0.00 | 0.00 | 0.00 | 85 | 1013.2 |
| 20260905032853 | 26 | 32 | 0.0 | 0.0 | 0.00 | 0.00 | 0.00 | 84 | 1013.1 |
| 20260905032351 | 26 | 32 | 0.0 | 0.0 | 0.00 | 0.00 | 0.00 | 84 | 1013.2 |
| 20260905031853 | 26 | 32 | 0.0 | 0.0 | 0.00 | 0.00 | 0.00 | 83 | 1013.2 |
| 20260905031618 | 27 | 32 | 0.0 | 0.0 | 0.00 | 0.00 | 0.00 | 82 | 1013.2 |
| 20260905030850 | 27 | 32 | 0.0 | 0.0 | 0.00 | 0.00 | 0.00 | 83 | 1013.2 |
| 20260905030349 | 27 | 32 | 0.0 | 0.0 | 0.00 | 0.00 | 0.00 | 83 | 1013.1 |
| 20260905025850 | 27 | 32 | 0.0 | 0.0 | 0.00 | 0.00 | 0.00 | 83 | 1013.2 |
| 20260905025348 | 27 | 32 | 0.0 | 0.0 | 0.00 | 0.00 | 0.00 | 82 | 1013.4 |
| 20260905025107 | 27 | 32 | 0.0 | 3.2 | 0.00 | 0.00 | 0.00 | 82 | 1013.3 |
| 20260905024836 | 27 | 32 | 0.0 | 3.2 | 0.00 | 0.00 | 0.00 | 82 | 1013.2 |
| 20260905023845 | 27 | 32 | 0.0 | 0.0 | 0.00 | 0.00 | 0.00 | 82 | 1013.3 |
| 20260905023344 | 27 | 32 | 0.0 | 0.0 | 0.00 | 0.00 | 0.00 | 81 | 1013.2 |
| 20260905023104 | 27 | 32 | 0.0 | 0.0 | 0.00 | 0.00 | 0.00 | 81 | 1013.2 |
| 20260905022345 | 27 | 32 | 0.0 | 0.0 | 0.00 | 0.00 | 0.00 | 80 | 1013.3 |
| 20260905021845 | 27 | 32 | 0.0 | 0.0 | 0.00 | 0.00 | 0.00 | 80 | 1013.2 |
| 20260905021602 | 27 | 32 | 0.0 | 0.0 | 0.00 | 0.00 | 0.00 | 79 | 1013.1 |
| 20260905020842 | 27 | 32 | 0.0 | 0.0 | 0.00 | 0.00 | 0.00 | 78 | 1013.0 |
| 20260905020342 | 27 | 32 | 0.0 | 0.0 | 0.00 | 0.00 | 0.00 | 78 | 1013.0 |
| 20260905015843 | 28 | 32 | 0.0 | 0.0 | 0.00 | 0.00 | 0.00 | 77 | 1012.9 |
| 20260905015343 | 28 | 32 | 0.0 | 0.0 | 0.00 | 0.00 | 0.00 | 76 | 1012.8 |
| 20260905014846 | 28 | 32 | 0.0 | 0.0 | 0.00 | 0.00 | 0.00 | 76 | 1012.8 |
| 20260905014355 | 28 | 32 | 0.0 | 0.0 | 0.00 | 0.00 | 0.00 | 75 | 1012.7 |
| 20260905013843 | 28 | 32 | 0.0 | 0.0 | 0.00 | 0.00 | 0.00 | 75 | 1012.7 |
| 20260905013344 | 28 | 32 | 0.0 | 0.0 | 0.00 | 0.00 | 0.00 | 74 | 1012.7 |
| 20260905012855 | 28 | 32 | 0.0 | 0.0 | 0.00 | 0.00 | 0.00 | 73 | 1012.7 |
| 20260905012605 | 28 | 32 | 0.0 | 0.0 | 0.00 | 0.00 | 0.00 | 72 | 1012.7 |
| 20260905011842 | 28 | 32 | 0.0 | 0.0 | 0.00 | 0.00 | 0.00 | 72 | 1012.6 |
| 20260905011342 | 29 | 32 | 0.0 | 0.0 | 0.00 | 0.00 | 0.00 | 71 | 1012.5 |
| 20260905010842 | 29 | 32 | 0.0 | 0.0 | 0.00 | 0.00 | 0.00 | 71 | 1012.5 |
| 20260905010343 | 29 | 32 | 0.0 | 0.0 | 0.00 | 0.00 | 0.00 | 71 | 1012.4 |
| 20260905005844 | 30 | 32 | 0.0 | 0.0 | 0.00 | 0.00 | 0.00 | 70 | 1012.4 |
| 20260905005355 | 30 | 32 | 0.0 | 0.0 | 0.00 | 0.00 | 0.00 | 69 | 1012.3 |
| 20260905004843 | 30 | 32 | 0.0 | 0.0 | 0.00 | 0.00 | 0.00 | 69 | 1012.3 |
| 20260905004355 | 30 | 32 | 0.0 | 0.0 | 0.00 | 0.00 | 0.00 | 69 | 1012.3 |